When you browse on this site, cookies collect data to enhance your experience and personalize the content and advertising you see.
Visit our Privacy Policy to learn more. By continuing to use the site, you agree to this use of cookies and data.
  • en Suisse
  • Liste des pays
  • À 7 jours
  • Température de l'eau
  • Carte satellitaire
  • Carte météo
  • Widgets météo
  • user-avatar
    Se connecter

    Météo par heure à Tomashivka

    Ce jour, 19 Juillet, Vendredi

    Heure Température Précipitation Vent Pression Humidité
    00:00 +13°C° 0 mm 3 m/s 745 mmHg 94%
    01:00 +13°C° 0 mm 3 m/s 745 mmHg 94%
    02:00 +13°C° 0 mm 3 m/s 745 mmHg 94%
    03:00 +13°C° 0 mm 3 m/s 746 mmHg 94%
    04:00 +12°C° 0 mm 3 m/s 746 mmHg 94%
    05:00 +12°C° 0 mm 3 m/s 746 mmHg 94%
    06:00 +14°C° 0 mm 3 m/s 746 mmHg 89%
    07:00 +17°C° 0 mm 3 m/s 746 mmHg 83%
    08:00 +19°C° 0 mm 3 m/s 747 mmHg 77%
    09:00 +20°C° 0.4 mm 3 m/s 747 mmHg 73%
    10:00 +21°C° 0.4 mm 4 m/s 747 mmHg 69%
    11:00 +23°C° 0.4 mm 4 m/s 747 mmHg 65%
    12:00 +23°C° 0.8 mm 4 m/s 747 mmHg 63%
    13:00 +24°C° 0.8 mm 3 m/s 746 mmHg 62%
    14:00 +25°C° 0.8 mm 3 m/s 746 mmHg 61%
    15:00 +25°C° 0.1 mm 3 m/s 746 mmHg 61%
    16:00 +25°C° 0.1 mm 3 m/s 747 mmHg 62%
    17:00 +25°C° 0.1 mm 3 m/s 747 mmHg 62%
    18:00 +22°C° 0 mm 3 m/s 747 mmHg 68%
    19:00 +20°C° 0 mm 2 m/s 747 mmHg 75%
    20:00 +19°C° 0 mm 2 m/s 747 mmHg 81%
    21:00 +18°C° 0 mm 2 m/s 747 mmHg 83%
    22:00 +17°C° 0 mm 2 m/s 747 mmHg 86%
    23:00 +16°C° 0 mm 2 m/s 748 mmHg 88%

    Demain, 20 Juillet, Samedi

    Heure Température Précipitation Vent Pression Humidité
    00:00 +16°C° 0 mm 2 m/s 748 mmHg 89%
    01:00 +16°C° 0 mm 2 m/s 748 mmHg 90%
    02:00 +15°C° 0 mm 2 m/s 748 mmHg 90%
    03:00 +15°C° 0 mm 2 m/s 748 mmHg 91%
    04:00 +15°C° 0 mm 2 m/s 748 mmHg 91%
    05:00 +15°C° 0 mm 2 m/s 748 mmHg 91%
    06:00 +17°C° 0 mm 2 m/s 748 mmHg 85%
    07:00 +19°C° 0 mm 2 m/s 749 mmHg 79%
    08:00 +20°C° 0 mm 2 m/s 749 mmHg 73%
    09:00 +23°C° 0.1 mm 2 m/s 749 mmHg 67%
    10:00 +24°C° 0.1 mm 2 m/s 749 mmHg 62%
    11:00 +25°C° 0.1 mm 2 m/s 749 mmHg 56%
    12:00 +26°C° 0 mm 2 m/s 749 mmHg 54%
    13:00 +26°C° 0 mm 2 m/s 749 mmHg 53%
    14:00 +26°C° 0 mm 2 m/s 749 mmHg 52%
    15:00 +26°C° 0 mm 2 m/s 749 mmHg 56%
    16:00 +26°C° 0 mm 2 m/s 749 mmHg 60%
    17:00 +25°C° 0 mm 2 m/s 749 mmHg 64%
    18:00 +24°C° 0.1 mm 1 m/s 749 mmHg 67%
    19:00 +23°C° 0.1 mm 1 m/s 749 mmHg 69%
    20:00 +22°C° 0.1 mm 1 m/s 749 mmHg 72%
    21:00 +21°C° 0.3 mm 1 m/s 749 mmHg 75%
    22:00 +18°C° 0.3 mm 0 m/s 749 mmHg 79%
    23:00 +17°C° 0.3 mm 0 m/s 749 mmHg 82%

    Après-demain, 21 Juillet, Dimanche

    Heure Température Précipitation Vent Pression Humidité
    00:00 +18°C° 0.1 mm 1 m/s 749 mmHg 85%
    01:00 +18°C° 0.1 mm 1 m/s 749 mmHg 87%
    02:00 +17°C° 0.1 mm 2 m/s 749 mmHg 89%
    03:00 +18°C° 0 mm 1 m/s 749 mmHg 90%
    04:00 +16°C° 0 mm 1 m/s 749 mmHg 91%
    05:00 +16°C° 0 mm 1 m/s 749 mmHg 92%
    06:00 +19°C° 0 mm 1 m/s 749 mmHg 87%
    07:00 +21°C° 0 mm 1 m/s 749 mmHg 82%
    08:00 +23°C° 0 mm 1 m/s 749 mmHg 76%
    09:00 +24°C° 0.2 mm 1 m/s 749 mmHg 71%
    10:00 +26°C° 0.2 mm 1 m/s 749 mmHg 67%
    11:00 +27°C° 0.2 mm 1 m/s 749 mmHg 62%
    12:00 +27°C° 0.8 mm 1 m/s 749 mmHg 62%
    13:00 +27°C° 0.8 mm 1 m/s 748 mmHg 61%
    14:00 +27°C° 0.8 mm 1 m/s 748 mmHg 61%
    15:00 +27°C° 0.3 mm 1 m/s 748 mmHg 62%
    16:00 +27°C° 0.3 mm 1 m/s 748 mmHg 63%
    17:00 +27°C° 0.3 mm 2 m/s 748 mmHg 64%
    18:00 +26°C° 0 mm 1 m/s 748 mmHg 70%
    19:00 +24°C° 0 mm 1 m/s 748 mmHg 76%
    20:00 +20°C° 0 mm 0 m/s 748 mmHg 82%
    21:00 +20°C° 0.1 mm 0 m/s 748 mmHg 84%
    22:00 +21°C° 0.1 mm 1 m/s 748 mmHg 85%
    23:00 +21°C° 0.1 mm 1 m/s 748 mmHg 86%

    22 Juillet, Lundi

    Heure Température Précipitation Vent Pression Humidité
    00:00 +21°C° 0 mm 1 m/s 748 mmHg 88%
    01:00 +19°C° 0 mm 2 m/s 747 mmHg 90%
    02:00 +19°C° 0 mm 2 m/s 747 mmHg 92%
    03:00 +19°C° 0.2 mm 2 m/s 747 mmHg 92%
    04:00 +19°C° 0.2 mm 3 m/s 747 mmHg 92%
    05:00 +19°C° 0.2 mm 3 m/s 746 mmHg 92%
    06:00 +20°C° 0.1 mm 4 m/s 746 mmHg 89%
    07:00 +21°C° 0.1 mm 4 m/s 746 mmHg 87%
    08:00 +22°C° 0.1 mm 5 m/s 746 mmHg 84%
    09:00 +23°C° 0 mm 5 m/s 746 mmHg 77%
    10:00 +25°C° 0 mm 5 m/s 746 mmHg 71%
    11:00 +26°C° 0 mm 5 m/s 746 mmHg 64%
    12:00 +26°C° 0.4 mm 6 m/s 746 mmHg 65%
    13:00 +26°C° 0.4 mm 6 m/s 746 mmHg 66%
    14:00 +27°C° 0.4 mm 7 m/s 746 mmHg 67%
    15:00 +26°C° 0.7 mm 6 m/s 746 mmHg 72%
    16:00 +23°C° 0.7 mm 6 m/s 746 mmHg 77%
    17:00 +22°C° 0.7 mm 6 m/s 746 mmHg 82%
    18:00 +22°C° 0.2 mm 5 m/s 746 mmHg 84%
    19:00 +21°C° 0.2 mm 5 m/s 746 mmHg 86%
    20:00 +20°C° 0.2 mm 4 m/s 746 mmHg 88%
    21:00 +19°C° 0 mm 4 m/s 746 mmHg 90%
    22:00 +18°C° 0 mm 4 m/s 746 mmHg 91%
    23:00 +17°C° 0 mm 4 m/s 746 mmHg 93%

    23 Juillet, Mardi

    Heure Température Précipitation Vent Pression Humidité
    00:00 +17°C° 0 mm 4 m/s 746 mmHg 93%
    01:00 +17°C° 0 mm 4 m/s 745 mmHg 94%
    02:00 +15°C° 0 mm 4 m/s 745 mmHg 95%
    03:00 +15°C° 0 mm 5 m/s 745 mmHg 94%
    04:00 +16°C° 0 mm 5 m/s 745 mmHg 92%
    05:00 +16°C° 0 mm 6 m/s 745 mmHg 91%
    06:00 +16°C° 0 mm 6 m/s 745 mmHg 89%
    07:00 +16°C° 0 mm 6 m/s 744 mmHg 87%
    08:00 +16°C° 0 mm 6 m/s 744 mmHg 85%
    09:00 +17°C° 0 mm 6 m/s 744 mmHg 84%
    10:00 +17°C° 0 mm 6 m/s 744 mmHg 82%
    11:00 +19°C° 0 mm 5 m/s 744 mmHg 80%
    12:00 +19°C° 0.2 mm 6 m/s 744 mmHg 79%
    13:00 +20°C° 0.2 mm 6 m/s 744 mmHg 79%
    14:00 +20°C° 0.2 mm 7 m/s 744 mmHg 79%
    15:00 +18°C° 0.2 mm 7 m/s 744 mmHg 82%
    16:00 +17°C° 0.2 mm 6 m/s 744 mmHg 85%
    17:00 +16°C° 0.2 mm 6 m/s 744 mmHg 89%
    18:00 +16°C° 1.4 mm 6 m/s 744 mmHg 90%
    19:00 +16°C° 1.4 mm 6 m/s 744 mmHg 92%
    20:00 +16°C° 1.4 mm 7 m/s 744 mmHg 93%
    21:00 +16°C° 0.5 mm 6 m/s 744 mmHg 92%
    22:00 +16°C° 0.5 mm 6 m/s 743 mmHg 92%
    23:00 +15°C° 0.5 mm 6 m/s 743 mmHg 91%

    24 Juillet, Mercredi

    Heure Température Précipitation Vent Pression Humidité
    00:00 +15°C° 0.1 mm 6 m/s 743 mmHg 90%
    01:00 +15°C° 0.1 mm 6 m/s 743 mmHg 89%
    02:00 +15°C° 0.1 mm 6 m/s 743 mmHg 88%
    03:00 +15°C° 0 mm 6 m/s 743 mmHg 89%
    04:00 +15°C° 0 mm 6 m/s 743 mmHg 89%
    05:00 +14°C° 0 mm 6 m/s 743 mmHg 90%
    06:00 +16°C° 0 mm 7 m/s 743 mmHg 86%
    07:00 +17°C° 0 mm 7 m/s 743 mmHg 82%
    08:00 +18°C° 0 mm 8 m/s 744 mmHg 78%
    09:00 +20°C° 0.1 mm 7 m/s 744 mmHg 74%
    10:00 +21°C° 0.1 mm 7 m/s 744 mmHg 70%
    11:00 +22°C° 0.1 mm 7 m/s 744 mmHg 67%
    12:00 +23°C° 0.6 mm 7 m/s 744 mmHg 66%
    13:00 +23°C° 0.6 mm 7 m/s 744 mmHg 66%
    14:00 +23°C° 0.6 mm 7 m/s 744 mmHg 66%
    15:00 +23°C° 0.4 mm 6 m/s 744 mmHg 68%
    16:00 +22°C° 0.4 mm 6 m/s 744 mmHg 70%
    17:00 +22°C° 0.4 mm 6 m/s 744 mmHg 73%
    18:00 +20°C° 0.2 mm 5 m/s 744 mmHg 78%
    19:00 +19°C° 0.2 mm 5 m/s 744 mmHg 82%
    20:00 +17°C° 0.2 mm 4 m/s 745 mmHg 87%
    21:00 +17°C° 0 mm 4 m/s 745 mmHg 87%
    22:00 +17°C° 0 mm 4 m/s 745 mmHg 87%
    23:00 +15°C° 0 mm 5 m/s 745 mmHg 87%
    Voir plus